[[{"header":{"parameterUnit":"m.s-1","parameterCategory":2,"la1":30.2991,"la2":30.254,"lo1":-89.0895,"lo2":-89.0444,"dx":0.0017,"dy":0.0017,"nx":28,"ny":28,"refTime":"2022-12-30T15:00:00:Z","depth":"0","parameterNumber":2,"parameterNumberName":"U-component_of_CURRENTS"},"data":[0,0,0,0,0,0,0,0,0,0,0,0,0,0,0,0,0,0,0,0,0,0,0,0,0,0,0,0,0,0,0,0,0,0,0,0,0,0,0,0,0,0,0,0,0,0,0,0,0,0,0,0,0,0,0,0,0,0,0.2705,0.2705,0,0.2597,0.2595,0.2593,0.2545,0.2546,0.2546,0.2547,0.2463,0.2461,0.2458,0,0,0,0,0,0,0,0,0,0,0,0,0,0.2837,0.2835,0.2705,0.2705,0.2704,0.2597,0.2595,0.2593,0.2545,0.2546,0.2546,0.2547,0.2464,0.2461,0.2458,0,0,0,0,0,0,0,0,0,0,0,0,0,0.2755,0.2834,0.2706,0.267,0.2667,0.2597,0.2595,0.2592,0.2545,0.2546,0.2547,0.2547,0.2465,0.2461,0.2457,0.2414,0,0,0.2445,0.2443,0,0,0,0,0,0,0,0,0.276,0.2749,0.2676,0.2673,0.2668,0.259,0.2611,0.2536,0.2545,0.2586,0.2547,0.2548,0.2511,0.2503,0.2473,0.241,0.2406,0.2444,0.2442,0.244,0.2439,0,0,0,0,0,0,0,0.2765,0.2754,0.2657,0.2676,0.2671,0.2649,0.2638,0.2596,0.2541,0.2582,0.258,0.2575,0.2508,0.2477,0.2471,0.2405,0.2444,0.2441,0.2438,0.2436,0.2343,0.2343,0,0,0,0,0,0,0.2789,0.2759,0.2661,0.2655,0.2723,0.2646,0.2634,0.261,0.2541,0.2532,0.2575,0.2573,0.2484,0.2476,0.2468,0.2449,0.244,0.2436,0.2434,0.2343,0.2343,0.2343,0,0,0,0,0,0,0.2792,0.278,0.2665,0.271,0.2694,0.2644,0.2617,0.2607,0.2586,0.2536,0.2527,0.2565,0.2484,0.2474,0.2444,0.2444,0.2434,0.243,0.2343,0.2343,0.2343,0.2388,0,0,0,0,0,0,0.2796,0.2781,0.2774,0.2711,0.2693,0.264,0.2616,0.2605,0.2584,0.2581,0.2524,0.2517,0.2484,0.245,0.244,0.2439,0.2427,0.2343,0.2343,0.2343,0.2387,0.239,0.2392,0,0,0,0,0,0.28,0.2786,0.2774,0.2763,0.2683,0.2641,0.2629,0.2593,0.2583,0.2576,0.254,0.2519,0.2443,0.2447,0.2434,0.2432,0.2343,0.2343,0.2343,0.2385,0.2389,0.2392,0,0,0,0,0,0,0.2839,0.2778,0.2764,0.2731,0.27,0.2635,0.2623,0.2599,0.256,0.2558,0.2513,0.2502,0.2479,0.2448,0.2453,0.2406,0.2391,0.2389,0.2428,0.2431,0.2434,0.2467,0.2424,0,0,0,0,0,0.2845,0.2814,0.2767,0.2741,0.2729,0.2678,0.2657,0.2632,0.259,0.2573,0.2535,0.2496,0.2464,0.2445,0.241,0.2378,0.244,0.2371,0.2373,0.2376,0.2394,0.2464,0.2476,0.2343,0.2343,0.2343,0,0,0.2852,0.2816,0.2798,0.2748,0.2716,0.2692,0.2666,0.2636,0.262,0.2571,0.2537,0.2504,0.2459,0.2429,0.2415,0.2405,0.2462,0.2376,0.2379,0.2396,0.2465,0.2479,0.2491,0.2343,0.2343,0.2343,0,0,0.285,0.2822,0.2798,0.2776,0.2738,0.2707,0.2706,0.2649,0.2632,0.2597,0.2563,0.2538,0.2476,0.2449,0.2427,0.2425,0.2477,0.2409,0.2443,0.251,0.2523,0.2534,0.2707,0.2733,0.2406,0.2406,0.2406,0,0.287,0.2823,0.2789,0.2769,0.2755,0.2719,0.2703,0.2676,0.2619,0.2608,0.2598,0.2529,0.2489,0.2464,0.2463,0.2433,0.252,0.2434,0.2518,0.253,0.2541,0.2714,0.2743,0.2408,0.2408,0.2408,0.2408,0,0.2848,0.2821,0.2809,0.2768,0.2753,0.2732,0.2704,0.2686,0.2664,0.2635,0.2616,0.2571,0.2543,0.2515,0.2485,0.2525,0.2585,0.2521,0.2518,0.2558,0.2738,0.2767,0.2411,0.2411,0.241,0.241,0,0,0.2868,0.2806,0.2804,0.2787,0.2753,0.2733,0.2722,0.2696,0.2702,0.2658,0.267,0.2608,0.2605,0.2583,0.255,0.2588,0.2754,0.2594,0.2597,0.2786,0.3007,0.3068,0.3106,0.271,0.2713,0.2716,0.3131,0,0.2866,0.2826,0.2799,0.2774,0.2753,0.2735,0.2731,0.271,0.2703,0.2709,0.2678,0.2668,0.2627,0.2625,0.2665,0.2716,0.2821,0.2655,0.2923,0.2933,0.2995,0.3136,0.295,0.3303,0.316,0.3165,0.3168,0,0.2855,0.2828,0.2799,0.2772,0.2767,0.2757,0.2761,0.2753,0.2758,0.2761,0.2766,0.2752,0.2802,0.2752,0.294,0.2845,0.2952,0.3001,0.3017,0.3072,0.3045,0.3222,0.3362,0.3193,0.3213,0.321,0.3206,0,0.2872,0.2832,0.2807,0.2796,0.2764,0.2763,0.2758,0.2764,0.2769,0.2803,0.2827,0.2881,0.2933,0.3037,0.3154,0.3068,0.3398,0.3286,0.3469,0.348,0.3374,0.3367,0.3387,0.3459,0.3459,0.3457,0.3456,0,0.2869,0.2851,0.2812,0.2798,0.279,0.2777,0.279,0.2796,0.2826,0.2852,0.2864,0.2927,0.3001,0.3167,0.3257,0.351,0.3512,0.3548,0.3589,0.3392,0.3383,0.3268,0.3168,0.3473,0.347,0.3467,0.3464,0,0.2873,0.2844,0.2817,0.2793,0.2787,0.2784,0.2788,0.2802,0.2845,0.2897,0.2909,0.3021,0.3251,0.3387,0.3612,0.3675,0.3766,0.3949,0.3777,0.3788,0.374,0.365,0.371,0.3636,0.423,0.4234,0.4237,0,0.2864,0.2847,0.2817,0.2798,0.2781,0.2776,0.2775,0.2801,0.2831,0.2955,0.2993,0.3212,0.3354,0.3767,0.3916,0.4186,0.3967,0.417,0.3927,0.3781,0.3712,0.3532,0.3449,0.3856,0.3856,0.3856,0.3856,0,0.285,0.2841,0.2817,0.279,0.2775,0.2758,0.2774,0.28,0.2859,0.294,0.3098,0.3217,0.3584,0.3754,0.4096,0.4206,0.3918,0.4181,0.4023,0.3448,0.3257,0.3188,0.3619,0.3855,0.3855,0.3855,0.3855,0.3855,0.2842,0.2827,0.2799,0.2769,0.2752,0.2741,0.273,0.2784,0.2852,0.2957,0.3129,0.3285,0.3499,0.3931,0.4045,0.4049,0.4017,0.3885,0.3823,0.3683,0.3471,0.398,0.4233,0.4235,0.4237,0.4239,0.424,0,0.2811,0.2796,0.2776,0.2734,0.2704,0.2705,0.272,0.271,0.2789,0.2945,0.3088,0.3258,0.3419,0.358,0.3693,0.3627,0.3476,0.3532,0.3141,0.3104,0.3556,0.3387,0.3469,0.3469,0.347,0.347,0.347,0.347,0.279,0.2757,0.2746,0.2687,0.266,0.2612,0.2609,0.2623,0.2706,0.2802,0.2881,0.2977,0.3085,0.3184,0.3133,0.3125,0.2884,0.282,0.2853,0.3027,0.3049,0.3069,0.2883,0.2858,0.2857,0.2232,0.2227,0.2223]},{"header":{"parameterUnit":"m.s-1","parameterCategory":2,"la1":30.2991,"la2":30.254,"lo1":-89.0895,"lo2":-89.0444,"dx":0.0017,"dy":0.0017,"nx":28,"ny":28,"refTime":"2022-12-30T15:00:00:Z","depth":"0","parameterNumber":3,"parameterNumberName":"V-component_of_CURRENTS"},"data":[0,0,0,0,0,0,0,0,0,0,0,0,0,0,0,0,0,0,0,0,0,0,0,0,0,0,0,0,0,0,0,0,0,0,0,0,0,0,0,0,0,0,0,0,0,0,0,0,0,0,0,0,0,0,0,0,0,0,-0.1306,-0.1306,0,-0.1336,-0.1336,-0.1336,-0.1368,-0.1369,-0.137,-0.137,-0.1393,-0.1393,-0.1393,0,0,0,0,0,0,0,0,0,0,0,0,0,-0.1291,-0.1291,-0.1306,-0.1306,-0.1307,-0.1336,-0.1336,-0.1336,-0.1368,-0.1369,-0.137,-0.1371,-0.1393,-0.1393,-0.1393,0,0,0,0,0,0,0,0,0,0,0,0,0,-0.1304,-0.1291,-0.1306,-0.1328,-0.1331,-0.1336,-0.1336,-0.1336,-0.1368,-0.1369,-0.137,-0.1371,-0.1393,-0.1393,-0.1393,-0.1372,0,0,-0.1393,-0.1393,0,0,0,0,0,0,0,0,-0.1303,-0.1304,-0.1324,-0.1327,-0.133,-0.1352,-0.1339,-0.1349,-0.1368,-0.1351,-0.137,-0.1372,-0.1379,-0.1381,-0.138,-0.1373,-0.1374,-0.1393,-0.1393,-0.1393,-0.1393,0,0,0,0,0,0,0,-0.1302,-0.1303,-0.1315,-0.1325,-0.1328,-0.1343,-0.1345,-0.1341,-0.1357,-0.1353,-0.1356,-0.1363,-0.1381,-0.138,-0.1381,-0.1374,-0.1393,-0.1393,-0.1393,-0.1393,-0.1346,-0.1345,0,0,0,0,0,0,-0.1302,-0.1302,-0.1314,-0.1316,-0.1322,-0.1342,-0.1345,-0.1341,-0.1357,-0.1361,-0.1362,-0.1364,-0.138,-0.1381,-0.1382,-0.1332,-0.1393,-0.1393,-0.1393,-0.1347,-0.1346,-0.1345,0,0,0,0,0,0,-0.1301,-0.1302,-0.1313,-0.1313,-0.1316,-0.1341,-0.1337,-0.1342,-0.1345,-0.1365,-0.1369,-0.1362,-0.1381,-0.1382,-0.137,-0.1334,-0.1393,-0.1392,-0.1349,-0.1347,-0.1345,-0.1248,0,0,0,0,0,0,-0.13,-0.1301,-0.1294,-0.1312,-0.1316,-0.1308,-0.1337,-0.1341,-0.1349,-0.1352,-0.1366,-0.1369,-0.1382,-0.137,-0.137,-0.1335,-0.1392,-0.135,-0.1348,-0.1346,-0.1253,-0.1243,-0.1235,0,0,0,0,0,-0.13,-0.128,-0.1293,-0.1295,-0.1306,-0.1308,-0.131,-0.1331,-0.1348,-0.1339,-0.1348,-0.1369,-0.1356,-0.1368,-0.1369,-0.1333,-0.1351,-0.1349,-0.1346,-0.1257,-0.1245,-0.1235,0,0,0,0,0,0,-0.1268,-0.1282,-0.1297,-0.1283,-0.1295,-0.1314,-0.1307,-0.1326,-0.1326,-0.1324,-0.1351,-0.1353,-0.1329,-0.1347,-0.1361,-0.1315,-0.1358,-0.1355,-0.129,-0.1279,-0.127,-0.1254,-0.1392,0,0,0,0,0,-0.1259,-0.1247,-0.1269,-0.1257,-0.126,-0.1284,-0.1288,-0.1299,-0.1306,-0.1308,-0.1321,-0.1327,-0.1316,-0.1312,-0.1311,-0.1284,-0.1263,-0.1263,-0.1254,-0.1246,-0.1234,-0.1164,-0.1146,-0.1336,-0.1336,-0.1336,0,0,-0.1246,-0.125,-0.1246,-0.125,-0.1259,-0.1242,-0.1287,-0.1281,-0.1266,-0.1308,-0.1287,-0.1295,-0.1303,-0.127,-0.1261,-0.1282,-0.1179,-0.1243,-0.1236,-0.1228,-0.1159,-0.114,-0.1124,-0.1334,-0.1334,-0.1335,0,0,-0.1206,-0.1215,-0.1191,-0.1191,-0.1198,-0.1208,-0.1205,-0.122,-0.1227,-0.1211,-0.123,-0.1212,-0.1217,-0.12,-0.1195,-0.1136,-0.1135,-0.1147,-0.1083,-0.1014,-0.0997,-0.0982,-0.0913,-0.0893,-0.114,-0.114,-0.114,0,-0.1191,-0.1162,-0.1185,-0.1159,-0.1148,-0.1188,-0.1154,-0.1161,-0.1171,-0.1161,-0.1194,-0.1161,-0.1175,-0.1111,-0.1098,-0.1112,-0.1077,-0.112,-0.0999,-0.0984,-0.097,-0.0903,-0.0882,-0.1135,-0.1135,-0.1136,-0.1136,0,-0.1136,-0.1109,-0.1091,-0.1069,-0.106,-0.1036,-0.1049,-0.104,-0.1058,-0.1068,-0.1029,-0.1039,-0.1018,-0.1019,-0.1045,-0.0953,-0.0961,-0.0993,-0.1019,-0.0944,-0.088,-0.0859,-0.1128,-0.113,-0.1131,-0.1132,0,0,-0.1107,-0.1062,-0.1054,-0.1021,-0.1006,-0.0988,-0.0956,-0.0935,-0.0897,-0.0919,-0.0848,-0.0861,-0.0878,-0.0874,-0.0891,-0.0841,-0.072,-0.0877,-0.0876,-0.0797,-0.0556,-0.0482,-0.0453,-0.0728,-0.0724,-0.0721,-0.0542,0,-0.1057,-0.0983,-0.0974,-0.0898,-0.086,-0.0864,-0.0826,-0.081,-0.0808,-0.075,-0.076,-0.0713,-0.082,-0.0785,-0.0758,-0.0714,-0.0665,-0.0765,-0.0652,-0.0648,-0.0581,-0.0426,-0.0388,-0.0218,-0.0522,-0.0519,-0.0517,0,-0.1003,-0.0959,-0.0876,-0.0798,-0.0781,-0.0742,-0.0671,-0.0638,-0.0586,-0.0572,-0.0545,-0.0559,-0.0492,-0.0584,-0.0497,-0.0555,-0.0555,-0.0538,-0.0531,-0.0482,-0.0535,-0.0348,-0.017,-0.0378,-0.0486,-0.0488,-0.049,0,-0.0967,-0.0884,-0.0812,-0.0788,-0.0715,-0.0672,-0.0633,-0.0587,-0.053,-0.0443,-0.0366,-0.0349,-0.0275,-0.0284,-0.0301,-0.0381,-0.0175,-0.028,-0.0215,-0.0211,-0.0165,-0.0161,-0.0162,-0.0208,-0.0208,-0.0209,-0.0209,0,-0.091,-0.085,-0.0789,-0.0746,-0.0647,-0.0618,-0.0515,-0.0469,-0.0369,-0.025,-0.0271,-0.0142,-0.0196,-0.0117,-0.0182,-0.0096,-0.0085,-0.015,-0.0135,-0.0129,-0.0125,-0.0297,-0.0415,-0.0202,-0.0203,-0.0205,-0.0206,0,-0.0873,-0.0835,-0.0744,-0.0659,-0.0625,-0.0553,-0.0437,-0.0355,-0.0269,-0.0089,-0.0041,0.0061,0.0191,0.0147,0.0201,0.0106,0.0096,0.0156,0.0171,0.0185,0.0023,-0.0089,0.0027,-0.0028,0.027,0.0273,0.0276,0,-0.0846,-0.0795,-0.0685,-0.0619,-0.0575,-0.0477,-0.0396,-0.0309,-0.0217,0.0046,0.0157,0.0341,0.0513,0.0635,0.053,0.0511,0.0285,0.0463,0.0305,0.008,-0.0036,-0.0114,-0.0179,0.0403,0.0407,0.041,0.0412,0,-0.0787,-0.075,-0.0675,-0.055,-0.0455,-0.0343,-0.0229,-0.0135,0.0016,0.0214,0.0515,0.0704,0.0852,0.0913,0.0858,0.0774,0.036,0.0523,0.0295,0.0103,0.0019,-0.005,0.0197,0.0438,0.0436,0.0434,0.0432,0.0431,-0.0745,-0.0678,-0.0581,-0.0461,-0.0346,-0.02,-0.009,0.0076,0.0304,0.0672,0.0788,0.1185,0.1157,0.1141,0.097,0.0624,0.0592,0.0452,0.035,0.0302,0.021,0.053,0.0774,0.0773,0.0772,0.0772,0.0771,0,-0.0687,-0.0606,-0.0491,-0.0334,-0.0198,-0.0158,0.0039,0.0202,0.0518,0.0929,0.1255,0.1553,0.1419,0.1189,0.0757,0.0467,0.0307,0.027,0.01,0.0049,0.0345,0.0302,0.0451,0.0451,0.0452,0.0452,0.0452,0.0452,-0.0645,-0.0534,-0.0471,-0.0241,-0.0123,0.0069,0.0192,0.0499,0.081,0.1407,0.1776,0.203,0.1862,0.0907,0.0247,0.0101,-0.0174,-0.0131,-0.0296,-0.0219,-0.0215,-0.0211,-0.0283,-0.0259,-0.026,-0.0569,-0.0573,-0.0575]}],[{"header":{"parameterUnit":"m.s-1","parameterCategory":2,"la1":30.2991,"la2":30.254,"lo1":-89.0895,"lo2":-89.0444,"dx":0.0017,"dy":0.0017,"nx":28,"ny":28,"refTime":"2022-12-30T15:00:00:Z","depth":"2","parameterNumber":2,"parameterNumberName":"U-component_of_CURRENTS"},"data":[0,0,0,0,0,0,0,0,0,0,0,0,0,0,0,0,0,0,0,0,0,0,0,0,0,0,0,0,0,0,0,0,0,0,0,0,0,0,0,0,0,0,0,0,0,0,0,0,0,0,0,0,0,0,0,0,0,0,0.2796,0.2797,0,0.2857,0.2858,0.2858,0.2813,0.2811,0.281,0.2808,0.282,0.2822,0.2823,0,0,0,0,0,0,0,0,0,0,0,0,0,0.2685,0.2687,0.2796,0.2797,0.2798,0.2857,0.2858,0.2858,0.2813,0.2811,0.2809,0.2807,0.2819,0.2821,0.2823,0,0,0,0,0,0,0,0,0,0,0,0,0,0.2735,0.2687,0.2795,0.2786,0.2786,0.2857,0.2858,0.2858,0.2814,0.2811,0.2809,0.2807,0.2818,0.2821,0.2824,0.2889,0,0,0.2832,0.2833,0,0,0,0,0,0,0,0,0.2732,0.2738,0.2786,0.2787,0.2787,0.2829,0.2823,0.2867,0.2814,0.2799,0.2808,0.2805,0.2823,0.2825,0.2837,0.2889,0.289,0.2832,0.2834,0.2835,0.2836,0,0,0,0,0,0,0,0.2728,0.2736,0.2816,0.2788,0.2788,0.2795,0.2798,0.2832,0.2819,0.28,0.2798,0.2812,0.2821,0.2834,0.2836,0.289,0.2832,0.2835,0.2836,0.2837,0.2961,0.2963,0,0,0,0,0,0,0.273,0.2733,0.2814,0.2818,0.2757,0.2799,0.2802,0.2814,0.282,0.282,0.2814,0.281,0.2831,0.2833,0.2837,0.2871,0.2835,0.2838,0.2839,0.2959,0.2961,0.2963,0,0,0,0,0,0,0.2727,0.2737,0.2812,0.278,0.279,0.2803,0.2817,0.2817,0.2823,0.2832,0.283,0.282,0.2829,0.2833,0.2877,0.2872,0.2839,0.2841,0.2957,0.296,0.2962,0.2968,0,0,0,0,0,0,0.2724,0.2735,0.2749,0.278,0.2792,0.2844,0.282,0.282,0.2838,0.2833,0.2837,0.2836,0.2827,0.2874,0.288,0.2876,0.2843,0.2955,0.2959,0.2961,0.2965,0.297,0.2974,0,0,0,0,0,0.272,0.2737,0.2749,0.276,0.2809,0.2845,0.2851,0.2849,0.2841,0.2846,0.2864,0.2835,0.2896,0.2879,0.2885,0.2881,0.2954,0.2958,0.2961,0.2963,0.2969,0.2974,0,0,0,0,0,0,0.2691,0.2737,0.2749,0.2779,0.281,0.2838,0.285,0.2859,0.288,0.2873,0.2875,0.2877,0.2916,0.2913,0.2893,0.2929,0.2914,0.292,0.2913,0.2919,0.2923,0.2902,0.2846,0,0,0,0,0,0.2699,0.2722,0.2766,0.279,0.2806,0.2835,0.2852,0.2855,0.288,0.2884,0.2893,0.2909,0.2943,0.294,0.2972,0.2998,0.3048,0.2997,0.3001,0.3004,0.2995,0.3118,0.3132,0.2975,0.2975,0.2975,0,0,0.2693,0.2724,0.2736,0.2786,0.2808,0.2839,0.2836,0.2861,0.2882,0.2887,0.2914,0.2941,0.2963,0.2992,0.3004,0.2978,0.3077,0.3009,0.3011,0.3,0.3123,0.3138,0.3152,0.2978,0.2977,0.2977,0,0,0.2693,0.2723,0.2743,0.2774,0.2818,0.2841,0.2851,0.2887,0.2892,0.2942,0.295,0.2979,0.3019,0.3025,0.3037,0.3091,0.3117,0.3091,0.3069,0.3188,0.3202,0.3214,0.3301,0.3322,0.3067,0.3067,0.3067,0,0.2684,0.2719,0.2754,0.2784,0.2807,0.2843,0.2866,0.2894,0.2937,0.2957,0.2946,0.3027,0.3034,0.3075,0.3074,0.3096,0.3166,0.3041,0.3194,0.3207,0.322,0.3306,0.3329,0.3068,0.3068,0.3067,0.3067,0,0.2703,0.2732,0.2745,0.2796,0.2827,0.2851,0.2898,0.2928,0.2948,0.2977,0.3032,0.3056,0.3092,0.3094,0.3092,0.3168,0.3191,0.3207,0.3176,0.3236,0.3323,0.3346,0.3069,0.3068,0.3068,0.3068,0,0,0.2673,0.2743,0.2747,0.2768,0.2832,0.2855,0.2905,0.2959,0.2995,0.3028,0.3078,0.3105,0.3113,0.3128,0.313,0.3193,0.3332,0.3219,0.3225,0.3297,0.3593,0.3281,0.3277,0.3389,0.3393,0.3396,0.3618,0,0.2673,0.2719,0.2758,0.2797,0.2822,0.2874,0.2916,0.2971,0.3021,0.3083,0.3112,0.3165,0.3129,0.3144,0.3206,0.3315,0.3394,0.3269,0.353,0.3537,0.3246,0.3292,0.3006,0.3149,0.3641,0.3645,0.3647,0,0.2679,0.2708,0.2741,0.2798,0.2813,0.2841,0.2916,0.2961,0.3061,0.3098,0.3151,0.32,0.327,0.3252,0.3445,0.3375,0.348,0.3555,0.3567,0.3282,0.3266,0.317,0.3173,0.3687,0.3683,0.3681,0.3678,0,0.2638,0.2695,0.2715,0.2736,0.2809,0.2828,0.2869,0.2959,0.3002,0.3114,0.3165,0.3267,0.3327,0.3472,0.3585,0.3552,0.3824,0.3814,0.3639,0.3621,0.3421,0.3373,0.3991,0.3991,0.399,0.399,0.3989,0,0.2625,0.2641,0.2693,0.2705,0.2726,0.2792,0.2833,0.2894,0.2993,0.3055,0.3156,0.3219,0.3394,0.3548,0.3653,0.3684,0.3894,0.3629,0.3649,0.3408,0.3359,0.3854,0.3835,0.3998,0.3996,0.3994,0.3993,0,0.2579,0.2618,0.2642,0.2697,0.2707,0.2722,0.2789,0.2827,0.2929,0.3023,0.3062,0.3234,0.3364,0.3524,0.3773,0.3725,0.3831,0.3815,0.3477,0.3443,0.3537,0.3517,0.3613,0.3604,0.3596,0.3589,0.3584,0,0.256,0.2568,0.261,0.2612,0.263,0.2658,0.2676,0.2773,0.2823,0.3012,0.3055,0.3211,0.3258,0.344,0.3397,0.3471,0.3696,0.3263,0.3082,0.3484,0.3498,0.3489,0.348,0.2881,0.287,0.2862,0.2854,0,0.2513,0.2529,0.2542,0.2544,0.2551,0.2569,0.261,0.2636,0.2771,0.2842,0.295,0.3007,0.3053,0.2928,0.2951,0.2964,0.319,0.3064,0.3687,0.2934,0.2788,0.2801,0.2819,0.2775,0.2783,0.2789,0.2793,0.2797,0.2462,0.2455,0.2466,0.2455,0.2467,0.2466,0.2444,0.2502,0.2543,0.2566,0.2708,0.2664,0.267,0.2434,0.2418,0.2385,0.2563,0.2535,0.2569,0.2611,0.2398,0.2236,0.2084,0.2088,0.2091,0.2094,0.2097,0,0.2372,0.2375,0.2372,0.2348,0.231,0.2365,0.2381,0.2303,0.2284,0.2304,0.2275,0.2025,0.1907,0.1994,0.1764,0.1705,0.1764,0.1702,0.182,0.1894,0.1961,0.1723,0.1228,0.1226,0.1224,0.1223,0,0,0.2323,0.2278,0.227,0.2179,0.2171,0.2101,0.2087,0.1979,0.1944,0.1779,0.1714,0.1689,0.1847,0.1494,0.1431,0.1328,0.1612,0.1259,0.1941,0.215,0.2216,0.2403,0.211,0,0,0,0,0]},{"header":{"parameterUnit":"m.s-1","parameterCategory":2,"la1":30.2991,"la2":30.254,"lo1":-89.0895,"lo2":-89.0444,"dx":0.0017,"dy":0.0017,"nx":28,"ny":28,"refTime":"2022-12-30T15:00:00:Z","depth":"2","parameterNumber":3,"parameterNumberName":"V-component_of_CURRENTS"},"data":[0,0,0,0,0,0,0,0,0,0,0,0,0,0,0,0,0,0,0,0,0,0,0,0,0,0,0,0,0,0,0,0,0,0,0,0,0,0,0,0,0,0,0,0,0,0,0,0,0,0,0,0,0,0,0,0,0,0,0.0579,0.0579,0,0.0572,0.0572,0.0572,0.0517,0.0516,0.0515,0.0514,0.045,0.045,0.0449,0,0,0,0,0,0,0,0,0,0,0,0,0,0.0539,0.054,0.0579,0.0579,0.0579,0.0572,0.0572,0.0572,0.0517,0.0516,0.0514,0.0513,0.0451,0.045,0.0449,0,0,0,0,0,0,0,0,0,0,0,0,0,0.0546,0.0541,0.0579,0.0552,0.055,0.0572,0.0572,0.0572,0.0518,0.0516,0.0514,0.0512,0.0451,0.045,0.0449,0.0481,0,0,0.0447,0.0446,0,0,0,0,0,0,0,0,0.0545,0.0547,0.0556,0.0554,0.0552,0.0545,0.0535,0.0539,0.0518,0.0529,0.0513,0.0511,0.0479,0.0476,0.0477,0.0478,0.0475,0.0447,0.0446,0.0446,0.0445,0,0,0,0,0,0,0,0.0545,0.0547,0.0575,0.0556,0.0554,0.0538,0.0537,0.0535,0.0512,0.0527,0.0524,0.0526,0.0477,0.0478,0.0475,0.0474,0.0447,0.0446,0.0445,0.0445,0.0491,0.0492,0,0,0,0,0,0,0.0551,0.0547,0.0575,0.0575,0.0545,0.0541,0.0539,0.0548,0.0513,0.0507,0.0527,0.0523,0.0481,0.0476,0.0473,0.0526,0.0446,0.0445,0.0444,0.0489,0.0491,0.0493,0,0,0,0,0,0,0.0551,0.0554,0.0576,0.0561,0.0563,0.0544,0.0553,0.0549,0.0552,0.0514,0.0506,0.0536,0.0479,0.0474,0.0502,0.0522,0.0445,0.0444,0.0487,0.049,0.0492,0.062,0,0,0,0,0,0,0.055,0.0554,0.057,0.0562,0.0564,0.0601,0.0555,0.055,0.0557,0.0551,0.0519,0.0511,0.0477,0.0504,0.0501,0.0519,0.0443,0.0485,0.0488,0.0491,0.0613,0.0626,0.0637,0,0,0,0,0,0.0548,0.0576,0.0572,0.0575,0.0584,0.0603,0.0604,0.0582,0.0559,0.0575,0.0567,0.0512,0.052,0.0506,0.0502,0.052,0.0483,0.0487,0.0491,0.0608,0.0624,0.0637,0,0,0,0,0,0,0.0569,0.0573,0.0568,0.0596,0.0606,0.0594,0.0611,0.0596,0.0602,0.0599,0.0554,0.0548,0.0575,0.0538,0.0523,0.0541,0.0485,0.0488,0.0575,0.0589,0.0601,0.0572,0.0443,0,0,0,0,0,0.0584,0.0604,0.0606,0.0632,0.064,0.063,0.0637,0.0626,0.0627,0.0627,0.061,0.0592,0.059,0.0583,0.0578,0.06,0.0547,0.0602,0.0614,0.0624,0.0598,0.0551,0.0556,0.0505,0.0505,0.0505,0,0,0.0598,0.0606,0.0615,0.0638,0.0643,0.0671,0.063,0.0653,0.068,0.0622,0.0662,0.0644,0.0609,0.0636,0.0641,0.0605,0.0623,0.0629,0.0639,0.0606,0.0556,0.056,0.0564,0.0508,0.0507,0.0507,0,0,0.0634,0.0647,0.0673,0.069,0.071,0.0712,0.0724,0.0731,0.0738,0.0784,0.0743,0.0739,0.0749,0.0716,0.0702,0.0776,0.0697,0.0773,0.0802,0.0759,0.0762,0.0763,0.0753,0.0752,0.0769,0.0769,0.0769,0,0.0646,0.0683,0.0686,0.0719,0.0742,0.0735,0.0773,0.0792,0.081,0.0825,0.0813,0.0801,0.078,0.0774,0.0798,0.0799,0.077,0.0755,0.0773,0.0773,0.0773,0.0761,0.0758,0.0776,0.0775,0.0774,0.0774,0,0.0697,0.0733,0.0756,0.0796,0.0825,0.0861,0.0886,0.0921,0.0934,0.0938,0.0955,0.0922,0.0895,0.0897,0.0873,0.0857,0.084,0.0805,0.0735,0.0785,0.077,0.0766,0.0785,0.0783,0.0781,0.0779,0,0,0.07,0.0773,0.0782,0.082,0.0869,0.09,0.0965,0.1012,0.1051,0.1052,0.1074,0.1057,0.1008,0.0984,0.0936,0.0893,0.0894,0.085,0.0844,0.0837,0.0822,0.0708,0.0691,0.0862,0.086,0.0859,0.0831,0,0.0735,0.0811,0.0842,0.0925,0.0969,0.1002,0.1065,0.1109,0.114,0.1169,0.1112,0.1117,0.105,0.1034,0.098,0.0922,0.0879,0.0906,0.0773,0.0769,0.0658,0.068,0.0635,0.0594,0.0826,0.0825,0.0825,0,0.077,0.082,0.0902,0.0999,0.1022,0.1074,0.1167,0.1223,0.1262,0.1281,0.1245,0.1201,0.1141,0.1074,0.0956,0.0979,0.0899,0.0841,0.0839,0.0666,0.0643,0.057,0.0576,0.0816,0.0816,0.0817,0.0818,0,0.077,0.0866,0.0936,0.0967,0.107,0.1122,0.1181,0.1252,0.1312,0.1332,0.1361,0.1271,0.1244,0.1114,0.0994,0.0977,0.0869,0.0833,0.0651,0.0645,0.054,0.0524,0.0725,0.0725,0.0725,0.0725,0.0725,0,0.0796,0.0854,0.0944,0.0983,0.1081,0.1146,0.1249,0.1302,0.1369,0.1443,0.1397,0.1413,0.1249,0.1171,0.103,0.0832,0.0893,0.064,0.0611,0.0589,0.0578,0.0701,0.0698,0.0724,0.0724,0.0724,0.0724,0,0.0793,0.0847,0.0934,0.1044,0.1085,0.1156,0.1294,0.1368,0.1435,0.1522,0.1527,0.1522,0.1414,0.1246,0.1066,0.0888,0.071,0.0623,0.062,0.0586,0.0509,0.0514,0.04,0.0395,0.0392,0.0388,0.0385,0,0.0801,0.0842,0.0965,0.1021,0.1076,0.1188,0.1275,0.1381,0.1465,0.1593,0.1631,0.1574,0.1522,0.1225,0.0899,0.0605,0.0648,0.0384,0.0297,0.0483,0.0468,0.0479,0.0489,0.0253,0.0249,0.0247,0.0244,0,0.0815,0.0854,0.0926,0.1031,0.1127,0.1244,0.1372,0.1446,0.1586,0.1677,0.1769,0.1738,0.1438,0.1094,0.0686,0.0493,0.0414,0.0305,0.0511,0.0318,0.0334,0.0322,0.0339,0.0218,0.022,0.0222,0.0224,0.0225,0.0822,0.0867,0.0953,0.1057,0.1163,0.1292,0.1385,0.153,0.1673,0.1761,0.1749,0.1657,0.133,0.0699,0.044,0.0165,0.0168,0.0053,0.0068,0.0084,0.0047,0.0052,-0.012,-0.0119,-0.0119,-0.0118,-0.0118,0,0.0828,0.0887,0.0976,0.1102,0.1205,0.1271,0.1449,0.154,0.1711,0.1702,0.1692,0.1293,0.0915,0.0632,0.0148,-0.0138,-0.0098,-0.0172,-0.0063,-0.004,-0.0018,-0.0054,-0.0251,-0.0251,-0.0251,-0.0251,0,0,0.0837,0.0906,0.0955,0.1109,0.1202,0.1347,0.1447,0.1603,0.1645,0.1606,0.1486,0.1196,0.0894,0.0507,0.0174,-0.0023,0.0047,-0.0057,0.0056,0.0242,0.0268,0.0093,0.0058,0,0,0,0,0]}],[{"header":{"parameterUnit":"m.s-1","parameterCategory":2,"la1":30.2991,"la2":30.254,"lo1":-89.0895,"lo2":-89.0444,"dx":0.0017,"dy":0.0017,"nx":28,"ny":28,"refTime":"2022-12-30T15:00:00:Z","depth":"4","parameterNumber":2,"parameterNumberName":"U-component_of_CURRENTS"},"data":[0,0,0,0,0,0,0,0,0,0,0,0,0,0,0,0,0,0,0,0,0,0,0,0,0,0,0,0,0,0,0,0,0,0,0,0,0,0,0,0,0,0,0,0,0,0,0,0,0,0,0,0,0,0,0,0,0,0,0.0589,0.059,0,0.0679,0.068,0.0681,0.0728,0.0728,0.0728,0.0728,0.0815,0.0817,0.0819,0,0,0,0,0,0,0,0,0,0,0,0,0,0.0489,0.049,0.0589,0.059,0.0591,0.0679,0.068,0.0681,0.0728,0.0728,0.0728,0.0728,0.0814,0.0816,0.0819,0,0,0,0,0,0,0,0,0,0,0,0,0,0.055,0.0491,0.0589,0.0626,0.063,0.0679,0.068,0.0682,0.0728,0.0728,0.0728,0.0729,0.0813,0.0816,0.0819,0.0836,0,0,0.0829,0.0831,0,0,0,0,0,0,0,0,0.0547,0.0554,0.0619,0.0623,0.0628,0.0693,0.0677,0.0733,0.0728,0.069,0.0728,0.0729,0.0774,0.078,0.0796,0.084,0.0844,0.083,0.0832,0.0833,0.0834,0,0,0,0,0,0,0,0.0542,0.055,0.0624,0.062,0.0626,0.0649,0.0657,0.0688,0.0729,0.0693,0.0697,0.0708,0.0776,0.0793,0.0798,0.0845,0.083,0.0833,0.0835,0.0836,0.0989,0.0991,0,0,0,0,0,0,0.0531,0.0546,0.0621,0.0627,0.0588,0.065,0.066,0.0672,0.0729,0.0738,0.0708,0.071,0.0787,0.0795,0.0802,0.0902,0.0833,0.0836,0.0838,0.0987,0.0989,0.0992,0,0,0,0,0,0,0.0528,0.0537,0.0618,0.0589,0.0601,0.0652,0.0665,0.0673,0.0711,0.074,0.0749,0.0739,0.0788,0.0797,0.0848,0.0903,0.0838,0.0841,0.0984,0.0988,0.0991,0.1053,0,0,0,0,0,0,0.0525,0.0535,0.055,0.0588,0.0602,0.0653,0.0665,0.0675,0.0716,0.072,0.0769,0.0776,0.0788,0.0843,0.0851,0.0906,0.0843,0.0982,0.0986,0.099,0.1048,0.1058,0.1066,0,0,0,0,0,0.0521,0.0532,0.0551,0.056,0.0618,0.0654,0.0663,0.0699,0.0718,0.0734,0.0773,0.0776,0.0875,0.0847,0.0856,0.0913,0.098,0.0985,0.0989,0.1044,0.1056,0.1066,0,0,0,0,0,0,0.0493,0.054,0.056,0.0585,0.0622,0.0662,0.0686,0.0711,0.0756,0.0765,0.0795,0.0805,0.0867,0.0881,0.085,0.097,0.0931,0.0938,0.097,0.0982,0.099,0.0991,0.0846,0,0,0,0,0,0.0495,0.052,0.0563,0.0585,0.0606,0.0652,0.0677,0.0699,0.0738,0.076,0.0804,0.085,0.0892,0.0928,0.0955,0.1023,0.1009,0.1068,0.1077,0.1085,0.1092,0.1071,0.1078,0.1007,0.1007,0.1007,0,0,0.0493,0.052,0.0536,0.0582,0.0617,0.0652,0.0668,0.0705,0.0741,0.0761,0.0836,0.0873,0.0911,0.0981,0.1014,0.1006,0.1109,0.1091,0.1097,0.11,0.1077,0.1083,0.1089,0.101,0.101,0.1009,0,0,0.0494,0.0525,0.055,0.0581,0.0631,0.0658,0.0673,0.0732,0.0768,0.083,0.0862,0.0929,0.1,0.1047,0.1076,0.1151,0.1141,0.1178,0.1244,0.1224,0.1229,0.1233,0.1265,0.1271,0.1201,0.1201,0.1201,0,0.0495,0.0527,0.0562,0.0593,0.0628,0.0664,0.0702,0.0737,0.0809,0.0856,0.0857,0.1005,0.1027,0.1134,0.1167,0.1172,0.1172,0.1199,0.1233,0.1236,0.1239,0.127,0.1276,0.1204,0.1204,0.1203,0.1203,0,0.0507,0.0547,0.0564,0.062,0.0662,0.0692,0.0747,0.0799,0.085,0.0899,0.1014,0.1065,0.1159,0.119,0.1202,0.1276,0.1276,0.1227,0.1198,0.125,0.128,0.1285,0.1209,0.1208,0.1207,0.1206,0,0,0.0477,0.0559,0.0569,0.0614,0.0679,0.0716,0.078,0.0861,0.0932,0.1006,0.1105,0.1199,0.1252,0.1289,0.1337,0.1346,0.1376,0.1313,0.131,0.1333,0.1375,0.1216,0.1206,0.1326,0.1326,0.1326,0.1402,0,0.0483,0.0547,0.0589,0.0665,0.0709,0.0771,0.0834,0.0913,0.0993,0.1092,0.1168,0.1276,0.1283,0.1361,0.1364,0.1373,0.1386,0.1363,0.1332,0.1332,0.1172,0.1203,0.1327,0.1405,0.1406,0.1407,0.1407,0,0.0475,0.053,0.0609,0.0711,0.0739,0.0796,0.0929,0.0992,0.1117,0.1193,0.1312,0.1365,0.1464,0.1419,0.1464,0.1451,0.142,0.1407,0.1408,0.1234,0.1178,0.1334,0.1415,0.1415,0.1414,0.1414,0.1413,0,0.0443,0.0538,0.061,0.0644,0.0766,0.0834,0.0904,0.1038,0.1126,0.1284,0.1346,0.1467,0.1532,0.1513,0.1474,0.1486,0.1455,0.1458,0.1299,0.1291,0.1384,0.1379,0.144,0.144,0.144,0.144,0.1439,0,0.0424,0.0482,0.0612,0.0657,0.0765,0.0848,0.099,0.1079,0.1224,0.1309,0.1406,0.1455,0.1543,0.1525,0.149,0.1392,0.1461,0.1315,0.1282,0.1418,0.1415,0.139,0.1384,0.1443,0.1442,0.1441,0.1441,0,0.0382,0.046,0.054,0.0685,0.0761,0.0834,0.1039,0.1124,0.1253,0.136,0.141,0.1488,0.146,0.1478,0.1459,0.14,0.133,0.1259,0.1432,0.1407,0.1207,0.1204,0.1174,0.1168,0.1164,0.116,0.1157,0,0.0366,0.0408,0.0565,0.0639,0.0721,0.0874,0.098,0.115,0.1207,0.1328,0.1315,0.1368,0.1384,0.1258,0.1266,0.1223,0.1171,0.1187,0.1193,0.12,0.1173,0.1177,0.1179,0.115,0.1148,0.1147,0.1146,0,0.0329,0.0379,0.0454,0.062,0.0743,0.086,0.0985,0.1028,0.1165,0.1284,0.1247,0.1246,0.1187,0.1172,0.1124,0.1069,0.1221,0.114,0.1151,0.1158,0.1171,0.1149,0.1157,0.113,0.1133,0.1134,0.1135,0,0.0302,0.0321,0.044,0.0573,0.0724,0.0788,0.0871,0.0925,0.1018,0.1118,0.1089,0.1091,0.117,0.108,0.1003,0.0968,0.0983,0.0998,0.1018,0.1035,0.0938,0.0932,0.079,0,0,0,0,0,0.028,0.0307,0.0402,0.053,0.0667,0.0742,0.0853,0.0907,0.1011,0.0969,0.1049,0.098,0.0943,0.0919,0.0853,0.0903,0.0959,0.0822,0.0981,0.1043,0.1061,0.0951,0,0,0,0,0,0,0.0269,0.0347,0.0367,0.0482,0.055,0.0678,0.072,0.0775,0.0739,0.0846,0.0804,0.0924,0.0856,0.0963,0.0832,0.083,0.0913,0.0844,0.0842,0.1032,0.1049,0.1064,0.0956,0,0,0,0,0]},{"header":{"parameterUnit":"m.s-1","parameterCategory":2,"la1":30.2991,"la2":30.254,"lo1":-89.0895,"lo2":-89.0444,"dx":0.0017,"dy":0.0017,"nx":28,"ny":28,"refTime":"2022-12-30T15:00:00:Z","depth":"4","parameterNumber":3,"parameterNumberName":"V-component_of_CURRENTS"},"data":[0,0,0,0,0,0,0,0,0,0,0,0,0,0,0,0,0,0,0,0,0,0,0,0,0,0,0,0,0,0,0,0,0,0,0,0,0,0,0,0,0,0,0,0,0,0,0,0,0,0,0,0,0,0,0,0,0,0,0.017,0.017,0,0.0158,0.0157,0.0157,0.0173,0.0174,0.0175,0.0175,0.015,0.0148,0.0147,0,0,0,0,0,0,0,0,0,0,0,0,0,0.0179,0.0179,0.017,0.017,0.017,0.0158,0.0157,0.0157,0.0173,0.0174,0.0175,0.0176,0.015,0.0148,0.0147,0,0,0,0,0,0,0,0,0,0,0,0,0,0.0169,0.0179,0.017,0.0178,0.0179,0.0158,0.0157,0.0157,0.0173,0.0174,0.0175,0.0176,0.0151,0.0149,0.0146,0.0108,0,0,0.014,0.0139,0,0,0,0,0,0,0,0,0.017,0.0169,0.0177,0.0178,0.0179,0.017,0.0151,0.0141,0.0172,0.0172,0.0175,0.0177,0.0156,0.0154,0.0145,0.0107,0.0106,0.014,0.0138,0.0137,0.0137,0,0,0,0,0,0,0,0.0171,0.0169,0.0162,0.0177,0.0178,0.0174,0.0174,0.0149,0.0155,0.0172,0.0174,0.0177,0.0156,0.0147,0.0144,0.0106,0.014,0.0138,0.0136,0.0136,0.0017,0.0015,0,0,0,0,0,0,0.0177,0.017,0.0162,0.0162,0.018,0.0173,0.0173,0.017,0.0156,0.0156,0.0176,0.0177,0.015,0.0147,0.0144,0.0098,0.0137,0.0135,0.0134,0.0019,0.0017,0.0015,0,0,0,0,0,0,0.0177,0.0177,0.0163,0.0168,0.0167,0.0172,0.0168,0.0169,0.0166,0.0159,0.0158,0.0174,0.0151,0.0147,0.0116,0.0097,0.0134,0.0132,0.0021,0.0018,0.0016,0.0006,0,0,0,0,0,0,0.0178,0.0176,0.0174,0.0168,0.0167,0.0147,0.0167,0.0168,0.0167,0.0169,0.0156,0.0155,0.0152,0.0119,0.0113,0.0095,0.0131,0.0023,0.002,0.0017,0.0009,0.0004,-0.0001,0,0,0,0,0,0.0178,0.017,0.0174,0.0173,0.0164,0.0146,0.0144,0.0151,0.0165,0.0154,0.0145,0.0156,0.0093,0.0116,0.011,0.009,0.0025,0.0021,0.0017,0.0011,0.0005,-0.0001,0,0,0,0,0,0,0.0173,0.0171,0.0175,0.0168,0.0157,0.015,0.0145,0.0149,0.0132,0.0136,0.0134,0.013,0.0091,0.0086,0.0111,0.0042,0.0059,0.0054,0.0057,0.0051,0.0046,0.0073,0.0129,0,0,0,0,0,0.017,0.0165,0.016,0.0152,0.0149,0.0146,0.0141,0.0142,0.013,0.0126,0.0117,0.0098,0.0066,0.0058,0.0027,-0.0005,-0.0011,-0.0025,-0.003,-0.0033,-0.0018,-0.0065,-0.0072,0.0001,0.0001,0.0001,0,0,0.0166,0.0165,0.0163,0.0151,0.0146,0.0138,0.0145,0.0134,0.0125,0.0122,0.0103,0.0076,0.0049,0.0009,-0.0008,0.0009,-0.006,-0.0039,-0.0041,-0.0024,-0.007,-0.0077,-0.0083,-0.0002,-0.0001,-0.0001,0,0,0.0164,0.0154,0.0156,0.0144,0.0137,0.0128,0.0126,0.0114,0.0106,0.0076,0.0067,0.0036,-0.0005,-0.0025,-0.004,-0.0092,-0.0092,-0.0112,-0.0103,-0.015,-0.0155,-0.016,-0.0177,-0.0183,-0.0105,-0.0105,-0.0105,0,0.0167,0.0165,0.0151,0.0148,0.0144,0.0127,0.0125,0.0103,0.0081,0.0066,0.0069,0.0002,-0.0019,-0.006,-0.0078,-0.01,-0.012,-0.0073,-0.0153,-0.0158,-0.0163,-0.0179,-0.0186,-0.0106,-0.0106,-0.0106,-0.0106,0,0.0169,0.0166,0.0162,0.0156,0.0141,0.0131,0.0106,0.0081,0.0069,0.0051,0.0003,-0.0029,-0.0057,-0.0085,-0.0093,-0.0144,-0.0145,-0.016,-0.0129,-0.0171,-0.0186,-0.0193,-0.0107,-0.0107,-0.0107,-0.0106,0,0,0.0189,0.0172,0.0174,0.0175,0.0146,0.0137,0.0102,0.0071,0.0059,0.0017,-0.0001,-0.0062,-0.007,-0.0088,-0.0111,-0.0147,-0.0201,-0.0163,-0.0165,-0.0162,-0.029,-0.0268,-0.0273,-0.0236,-0.0238,-0.0239,-0.0285,0,0.0204,0.0212,0.0191,0.0186,0.0186,0.0146,0.0117,0.0078,0.0048,0.0017,-0.0029,-0.0055,-0.0075,-0.0082,-0.0128,-0.0195,-0.0221,-0.0185,-0.0264,-0.0265,-0.0227,-0.0281,-0.0243,-0.029,-0.0292,-0.0293,-0.0294,0,0.0219,0.0225,0.0235,0.0207,0.0203,0.0195,0.0154,0.0123,0.006,0.0039,0.0002,-0.0032,-0.0091,-0.0095,-0.0207,-0.0189,-0.0229,-0.0272,-0.0275,-0.025,-0.0256,-0.0244,-0.0306,-0.0305,-0.0304,-0.0304,-0.0303,0,0.0256,0.0248,0.0264,0.0258,0.0226,0.022,0.0195,0.0139,0.0124,0.0069,0.005,-0.0024,-0.0054,-0.0138,-0.0236,-0.0223,-0.0361,-0.0354,-0.0362,-0.036,-0.0357,-0.0351,-0.0411,-0.0411,-0.0411,-0.0411,-0.0411,0,0.0277,0.0285,0.0291,0.0302,0.0307,0.0265,0.0265,0.0221,0.0184,0.0156,0.008,0.0038,-0.007,-0.0167,-0.0244,-0.0338,-0.0369,-0.0361,-0.0378,-0.0361,-0.0356,-0.0361,-0.0355,-0.0412,-0.0412,-0.0412,-0.0411,0,0.0299,0.0308,0.0322,0.0321,0.0331,0.0329,0.0327,0.0316,0.0268,0.0231,0.0217,0.0088,-0.0045,-0.0157,-0.0296,-0.0335,-0.0432,-0.0447,-0.0415,-0.043,-0.0386,-0.038,-0.0442,-0.0441,-0.0441,-0.0441,-0.0441,0,0.0304,0.0324,0.0355,0.0375,0.0383,0.0396,0.0401,0.0373,0.0341,0.0245,0.02,0.0092,-0.0003,-0.0194,-0.031,-0.0437,-0.0442,-0.0469,-0.0421,-0.0383,-0.0393,-0.0387,-0.0382,-0.0441,-0.0441,-0.044,-0.044,0,0.0302,0.0324,0.0337,0.0407,0.0436,0.0436,0.0422,0.0414,0.0345,0.0339,0.0206,0.0113,-0.0035,-0.0183,-0.0281,-0.0379,-0.0449,-0.0466,-0.0466,-0.0421,-0.0382,-0.0391,-0.0386,-0.044,-0.044,-0.044,-0.044,0,0.0298,0.03,0.0347,0.0391,0.0446,0.0422,0.0422,0.037,0.035,0.025,0.021,0.0058,-0.001,-0.0155,-0.0273,-0.0347,-0.0336,-0.0329,-0.0335,-0.0337,-0.0293,-0.0228,-0.0255,0,0,0,0,0,0.0286,0.0282,0.0323,0.0348,0.0414,0.0425,0.0404,0.0383,0.0345,0.0276,0.0251,0.0117,-0.0029,-0.0136,-0.02,-0.027,-0.0365,-0.0346,-0.0363,-0.0436,-0.0437,-0.0402,0,0,0,0,0,0,0.0264,0.0301,0.0301,0.0324,0.034,0.0366,0.0345,0.0308,0.0242,0.0218,0.0121,0.0134,-0.0042,0.0018,-0.0192,-0.022,-0.023,-0.041,-0.0411,-0.0436,-0.0436,-0.0437,-0.0401,0,0,0,0,0]}]]